Burlington, IA

7:42 AM CDT on May 24, 2018 (GMT -0500)
Burlington Regional

Weather History for KBRL - July, 2013

Change the Weather History Date:

Monday, July 1, 2013

  Actual Average Record
Temperature  
Mean Temperature 71 °F 77 °F  
Max Temperature 82 °F 87 °F 103 °F (1956)
Min Temperature 60 °F 67 °F 51 °F (1918)
Degree Days  
Heating Degree Days 0 0  
Month to date heating degree days 0 0  
Since 1 June heating degree days 15 13  
Since 1 July heating degree days 0 0  
Cooling Degree Days 6 12  
Month to date cooling degree days 6 12  
Year to date cooling degree days 313 375  
Since 1 June cooling degree days 214 272  
Growing Degree Days 20 (Base 50)    
Moisture  
Dew Point 52 °F    
Average Humidity 56    
Maximum Humidity 78    
Minimum Humidity 33    
Precipitation  
Precipitation 0.00 in 0.14 in 1.78 in (1958)
Month to date precipitation 0.00 0.14  
Year to date precipitation 25.47 18.87  
Sea Level Pressure  
Sea Level Pressure 30.04 in    
Wind  
Wind Speed 12 mph (NNE)    
Max Wind Speed 18 mph    
Max Gust Speed 24 mph    
Visibility 10 miles    
Events      
T = Trace of Precipitation, MM = Missing Value Source: NWS Daily Summary

Daily Weather History Graph

Daily Weather History Graph

Search for Another Location

Airport or City:

Astronomy

Jul. 01, 2013 Rise Set
Actual Time 5:36 AM CDT 8:39 PM CDT
Civil Twilight 5:03 AM CDT 9:12 PM CDT
Nautical Twilight 4:21 AM CDT 9:55 PM CDT
Astronomical Twilight 3:31 AM CDT 10:44 PM CDT
Moon 1:08 AM CDT (7/1) 2:54 PM CDT (7/1)
Length of Visible Light 16h 09m
Length of Day
15h 02m
Waning Crescent, 35% of the Moon is Illuminated
Jul 1
Waning Crescent
Jul 8
New
Jul 15
First Quarter
Jul 22
Full
Jul 29
Last Quarter

Hourly Weather History & Observations

Time (CDT) Temp. Heat Index Dew Point Humidity Pressure Visibility Wind Dir Wind Speed Gust Speed Precip Events Conditions
12:53 AM 66.9 °F - 55.0 °F 66% 30.01 in 10.0 mi NE 8.1 mph - N/A   Partly Cloudy
1:53 AM 66.0 °F - 53.1 °F 63% 30.01 in 10.0 mi NNE 6.9 mph - N/A   Clear
2:53 AM 62.1 °F - 53.1 °F 72% 30.01 in 10.0 mi North 5.8 mph - N/A   Clear
3:53 AM 60.1 °F - 53.1 °F 78% 30.01 in 10.0 mi North 8.1 mph - N/A   Clear
4:53 AM 60.1 °F - 52.0 °F 75% 30.01 in 10.0 mi North 9.2 mph - N/A   Clear
5:53 AM 62.1 °F - 51.1 °F 67% 30.02 in 10.0 mi North 12.7 mph - N/A   Clear
6:53 AM 63.0 °F - 51.1 °F 65% 30.03 in 10.0 mi NNE 12.7 mph - N/A   Clear
7:53 AM 64.9 °F - 51.1 °F 61% 30.05 in 10.0 mi NNE 13.8 mph - N/A   Clear
8:53 AM 69.1 °F - 52.0 °F 54% 30.06 in 10.0 mi NE 16.1 mph - N/A   Clear
9:53 AM 71.1 °F - 54.0 °F 55% 30.06 in 10.0 mi NNE 12.7 mph - N/A   Clear
10:53 AM 75.0 °F - 55.9 °F 51% 30.06 in 10.0 mi NE 11.5 mph - N/A   Clear
11:53 AM 75.9 °F - 51.1 °F 42% 30.06 in 10.0 mi NNE 13.8 mph - N/A   Clear
12:53 PM 78.1 °F - 53.1 °F 42% 30.05 in 10.0 mi North 15.0 mph - N/A   Clear
1:53 PM 79.0 °F - 54.0 °F 42% 30.04 in 10.0 mi NE 15.0 mph 19.6 mph N/A   Clear
2:53 PM 81.0 °F 80.5 °F 54.0 °F 39% 30.04 in 10.0 mi NE 15.0 mph 24.2 mph N/A   Clear
3:53 PM 81.0 °F - 51.1 °F 35% 30.04 in 7.0 mi NNE 16.1 mph - N/A   Clear
4:53 PM 80.1 °F - 48.9 °F 34% 30.04 in 10.0 mi NE 15.0 mph - N/A   Clear
5:53 PM 79.0 °F - 50.0 °F 36% 30.03 in 10.0 mi NNE 13.8 mph 23.0 mph N/A   Clear
6:53 PM 78.1 °F - 50.0 °F 37% 30.04 in 10.0 mi NNE 13.8 mph 21.9 mph N/A   Clear
7:53 PM 75.0 °F - 50.0 °F 41% 30.04 in 10.0 mi NNE 11.5 mph - N/A   Clear
8:53 PM 72.0 °F - 51.1 °F 48% 30.05 in 10.0 mi NNE 9.2 mph - N/A   Clear
9:53 PM 70.0 °F - 52.0 °F 53% 30.07 in 10.0 mi NE 6.9 mph - N/A   Clear
10:53 PM 68.0 °F - 53.1 °F 59% 30.06 in 10.0 mi NNE 8.1 mph - N/A   Clear
11:53 PM 64.0 °F - 53.1 °F 67% 30.07 in 10.0 mi NNE 6.9 mph - N/A   Clear